BREEZE-M DEB (TANK) - Orbit

View from above orbital plane
View from above orbital plane
View from above satellite
View from above satellite

Ground track
Ground track

The orbit data is extracted from the following two-line orbital elements,

1 27821U 03024B   13144.55809674  .00008349  00000-0  10640-2 0  1861
2 27821 049.5825 139.8106 5047402 001.6531 097.4310 05.56067723196260
Epoch (UTC): 24 May 2013 13:23:39
Eccentricity: 0.5047402
inclination: 49.5825°
perigee height: 287 km
apogee height: 13872 km
right ascension of ascending node: 139.8106°
argument of perigee: 1.6531°
revolutions per day: 5.56067723
mean anomaly at epoch: 97.4310°
orbit number at epoch: 19626

The dashed part of the orbit path shows where the satellite is in the earth's shadow,  

Developed and maintained by Chris Peat, Heavens-Above GmbH. Please read the updated FAQ before sending e-mail. Imprint. DLR